Torna al catalogo

CICERO-2

AttivoScienzaSSO
NORAD 42848·PAYLOAD·🇺🇸 United States
Questo nome del satellite non è ancora stato confermato da fonti ufficiali.

Lanciato Jul 14, 2017 da Baikonur Cosmodrome

Loading…

Prossimi Passaggi (prossime 24 ore)

TLE

AggiornatoSource: Space-Track

Epoca: Sep 13, 2026, 09:43 UTC

1 42848U 17042Z   26256.40543652  .00003172  00000-0  20981-3 0  9996
2 42848  97.4040  56.1874 0006682 112.1361 248.0578 15.08036758500530

Traccia CICERO-2 in tempo reale con AllMySat

Download on the App Store